Baku, Azerbaijan

11:09 PM +04 on September 20, 2018 (GMT +0400)
Bina

Weather History for UBBB - March, 2018

Change the Weather History Date:

Wednesday, March 21, 2018

  Actual Average Record
Temperature  
Mean Temperature 49 °F -  
Max Temperature 54 °F - - ()
Min Temperature 44 °F - - ()
Degree Days  
Heating Degree Days 16    
Moisture  
Dew Point 45 °F    
Average Humidity 80    
Maximum Humidity 100    
Minimum Humidity 58    
Precipitation  
Precipitation 0.00 in - - ()
Sea Level Pressure  
Sea Level Pressure 29.84 in    
Wind  
Wind Speed 17 mph ()    
Max Wind Speed 38 mph    
Max Gust Speed 47 mph    
Visibility 5.5 miles    
Events Fog    
T = Trace of Precipitation, MM = Missing Value Source: Averaged Metar Reports

Daily Weather History Graph

Daily Weather History Graph

Search for Another Location

Airport or City:

Astronomy

Mar. 21, 2018 Rise Set
Actual Time 6:42 AM +04 6:52 PM +04
Civil Twilight 6:14 AM +04 7:19 PM +04
Nautical Twilight 5:43 AM +04 7:51 PM +04
Astronomical Twilight 5:10 AM +04 8:24 PM +04
Moon 9:05 AM +04 (3/21) 11:02 PM +04 (3/21)
Length of Visible Light 13h 04m
Length of Day
12h 10m
Waxing Crescent, 16% of the Moon is Illuminated
Mar 21
Waxing Crescent
Mar 24
First Quarter
Mar 31
Full
Apr 8
Last Quarter
Apr 16
New

Hourly Weather History & Observations

Time (+04) Temp. Windchill Dew Point Humidity Pressure Visibility Wind Dir Wind Speed Gust Speed Precip Events Conditions
12:00 AM 48.2 °F - 48.2 °F 100% 29.77 in 5.0 mi SSE 18.4 mph - N/A   Mostly Cloudy
12:30 AM 50.0 °F - 48.2 °F 94% 29.74 in - South 10.4 mph - N/A   Clear
1:00 AM 49 °F - 47 °F 89% 29.75 in 6 mi SE 15.7 mph - -   Overcast
1:00 AM 53.6 °F - 46.4 °F 77% 29.74 in - South 11.5 mph - N/A   Clear
1:30 AM 55.4 °F - 46.4 °F 72% 29.74 in - ESE 9.2 mph - N/A   Clear
2:00 AM 50.0 °F - 48.2 °F 94% 29.74 in - SE 12.7 mph - N/A   Clear
2:30 AM 51.8 °F - 48.2 °F 88% 29.71 in - SSE 13.8 mph - N/A   Clear
3:00 AM 50.0 °F - 48.2 °F 94% 29.71 in - SE 12.7 mph - N/A   Clear
3:30 AM 50.0 °F - 46.4 °F 87% 29.71 in - South 11.5 mph - N/A   Clear
4:00 AM 49 °F - 46 °F 87% 29.69 in 6 mi SSE 13.4 mph - -   Overcast
4:00 AM 51.8 °F - 46.4 °F 82% 29.68 in - South 11.5 mph - N/A   Clear
4:30 AM 51.8 °F - 46.4 °F 82% 29.68 in - SSE 10.4 mph - N/A   Clear
5:00 AM 55.4 °F - 46.4 °F 72% 29.68 in - South 23.0 mph - N/A   Clear
5:30 AM 51.8 °F - 48.2 °F 88% 29.68 in - South 20.7 mph - N/A   Clear
6:00 AM 51.8 °F - 48.2 °F 88% 29.68 in - South 18.4 mph - N/A   Clear
6:30 AM 50.0 °F - 48.2 °F 94% 29.68 in - South 17.3 mph - N/A   Clear
7:00 AM 49 °F - 46 °F 87% 29.69 in 6 mi SSE 4.5 mph - -   Overcast
7:00 AM 51.8 °F - 48.2 °F 88% 29.68 in - NNE 4.6 mph - N/A   Clear
7:30 AM 42.8 °F 33.5 °F 41.0 °F 93% 29.74 in 0.9 mi NW 23.0 mph 36.8 mph N/A Fog Mostly Cloudy
8:00 AM 42.8 °F 33.5 °F 42.8 °F 100% 29.77 in 0.5 mi NW 23.0 mph 34.5 mph N/A Fog Fog
8:30 AM 42.8 °F 32.7 °F 42.8 °F 100% 29.80 in 1.8 mi NW 27.6 mph 39.1 mph N/A   Overcast
9:00 AM 44.6 °F 35.5 °F 44.6 °F 100% 29.83 in 6.2 mi NW 25.3 mph 38.0 mph N/A   Light Drizzle
9:30 AM 44.6 °F 35.5 °F 42.8 °F 93% 29.83 in 6.2 mi NW 25.3 mph 36.8 mph N/A   Overcast
10:00 AM 48 °F - 46 °F 89% 29.85 in 6 mi West 22.4 mph - -   Overcast
10:00 AM 44.6 °F 34.9 °F 42.8 °F 93% 29.86 in 6.2 mi NW 28.8 mph - N/A   Overcast
10:30 AM 46.4 °F 38.3 °F 42.8 °F 87% 29.86 in 6.2 mi NW 23.0 mph 34.5 mph N/A   Overcast
11:00 AM 48.2 °F - 42.8 °F 82% 29.83 in 6.2 mi NNW 29.9 mph - N/A   Mostly Cloudy
11:30 AM 48.2 °F - 44.6 °F 87% 29.83 in 6.2 mi NNW 29.9 mph - N/A   Mostly Cloudy
12:00 PM 50.0 °F - 44.6 °F 82% 29.83 in 6.2 mi NNW 25.3 mph - N/A   Mostly Cloudy
12:30 PM 50.0 °F - 44.6 °F 82% 29.83 in 6.2 mi NNW 24.2 mph - N/A   Mostly Cloudy
1:00 PM 50 °F - 44 °F 72% 29.83 in 6 mi NNW 13.4 mph - -   Mostly Cloudy
1:00 PM 50.0 °F - 44.6 °F 82% 29.83 in 6.2 mi NNW 23.0 mph - N/A   Mostly Cloudy
1:30 PM 51.8 °F - 44.6 °F 76% 29.83 in - NNW 23.0 mph - N/A   Clear
2:00 PM 55.4 °F - 44.6 °F 67% 29.83 in - NNW 28.8 mph 40.3 mph N/A   Clear
2:30 PM 55.4 °F - 44.6 °F 67% 29.86 in - NNW 31.1 mph 42.6 mph N/A   Clear
3:00 PM 51.8 °F - 42.8 °F 71% 29.86 in - NNW 35.7 mph 47.2 mph N/A   Clear
3:30 PM 51.8 °F - 44.6 °F 76% 29.89 in 6.2 mi NNW 32.2 mph 43.7 mph N/A   Mostly Cloudy
4:00 PM 51 °F - 44 °F 70% 29.89 in 6 mi WNW 38.0 mph - -   Clear
4:00 PM 51.8 °F - 44.6 °F 76% 29.89 in 6.2 mi NNW 35.7 mph 47.2 mph N/A   Mostly Cloudy
4:30 PM 53.6 °F - 46.4 °F 77% 29.89 in - NNW 34.5 mph 46.0 mph N/A   Clear
5:00 PM 53.6 °F - 46.4 °F 77% 29.92 in - NNW 27.6 mph 39.1 mph N/A   Clear
5:30 PM 53.6 °F - 44.6 °F 72% 29.95 in - NW 23.0 mph 34.5 mph N/A   Clear
6:00 PM 53.6 °F - 42.8 °F 67% 29.95 in - NNW 32.2 mph - N/A   Clear
7:00 PM 52 °F - 43 °F 63% 29.96 in 6 mi WNW 20.1 mph - -   Overcast
7:00 PM 53.6 °F - 42.8 °F 67% 29.98 in 6.2 mi NNW 21.9 mph - N/A   Overcast
7:30 PM 53.6 °F - 42.8 °F 67% 29.98 in 6.2 mi NNW 20.7 mph - N/A   Overcast
8:00 PM 53.6 °F - 42.8 °F 67% 29.98 in - NW 17.3 mph - N/A   Clear
8:30 PM 55.4 °F - 41.0 °F 58% 29.98 in - NNW 17.3 mph - N/A   Clear
9:00 PM 55.4 °F - 41.0 °F 58% 30.01 in - NNW 13.8 mph - N/A   Clear
9:30 PM 53.6 °F - 42.8 °F 67% 30.01 in - NNW 15.0 mph - N/A   Clear
10:00 PM 53 °F - 42 °F 58% 30.03 in 6 mi West 11.2 mph - -  
10:00 PM 53.6 °F - 42.8 °F 67% 30.04 in - NNW 11.5 mph - N/A   Clear
10:30 PM 51.8 °F - 42.8 °F 71% 30.04 in - NNW 15.0 mph - N/A   Clear
11:00 PM 50.0 °F - 42.8 °F 76% 30.06 in - NNW 9.2 mph - N/A   Clear
11:30 PM 50.0 °F - 42.8 °F 76% 30.06 in - NNW 6.9 mph - N/A   Clear